Hourly Data Report for October 04, 2017

All times are specified in Local Standard Time (LST). Add 1 hour to adjust for Daylight Saving Time where and when it is observed.

VERNON AUTO
BRITISH COLUMBIA

50°13'23.900" N
119°11'36.700" W
482.00 m
1128582
71115
WJV

Download Data

Hourly Data (October 2017)
Hourly Data Report for October 4, 2017
Temp Definition
°C
Dew Point Temp Definition
°C
Rel Hum Definition
%
Wind Dir Definition
10's deg

Wind Spd Definition
km/h
Visibility Definition
km
Stn Press Definition
kPa
Hmdx Definition


Wind Chill Definition


Weather Definition


TIME
00:00 3.4 -0.5 76 11 15   96.96     LegendNANA
01:00 2.8 -0.7 78 11 16   96.96     LegendNANA
02:00 1.9 -0.8 83 10 6   96.99     LegendNANA
03:00 1.4 -0.7 86 7 4   96.99     LegendNANA
04:00 1.1 -0.8 87 7 3   96.97     LegendNANA
05:00 0.5 -1.2 89 9 6   96.94     LegendNANA
06:00 -0.3 -1.5 91 0 1   96.96   -1 LegendNANA
07:00 1.3 -0.4 88 10 9   96.95     LegendNANA
08:00 3.5 0.1 78 12 3   96.93     LegendNANA
09:00 5.0 0.9 74 9 3   96.88     LegendNANA
10:00 8.7 1.0 59 25 5   96.82     LegendNANA
11:00 10.4 3.3 61 28 5   96.77     LegendNANA
12:00 11.4 3.5 58 29 4   96.67     LegendNANA
13:00 12.6 2.2 49 27 3   96.59     LegendNANA
14:00 13.5 1.5 44 24 5   96.54     LegendNANA
15:00 15.1 0.1 36 25 4   96.51     LegendNANA
16:00 14.1 1.6 43 24 3   96.49     LegendNANA
17:00 10.8 3.2 59 14 3   96.48     LegendNANA
18:00 8.3 2.5 67 10 4   96.52     LegendNANA
19:00 8.5 2.2 65 11 8   96.55     LegendNANA
20:00 8.4 1.9 64 11 12   96.58     LegendNANA
21:00 7.2 1.6 68 11 10   96.57     LegendNANA
22:00 6.4 1.4 70 11 12   96.58     LegendNANA
23:00 5.2 1.2 75 10 9   96.58     LegendNANA

Notes on Data Quality.

Legend

  • E = Estimated
  • M = Missing
  • NA = Not Available
  • ‡ = Partner data that is not subject to review by the National Climate Archives
Date modified: